This demonstration page uses our WeatherBlox Daily Observations layout. Learn more.

Left ArrowRight Arrow

Hourly Observations for March 25, 2016

Temp ( °F °C ) Dew Point ( °F °C ) Humidity (%) Winds ( mph kmh ) Pressure ( in mb ) Visibility ( mi km ) Precip ( " mm )
12:53 am 00:53 Cloudy 49 9.4 42 5.6 77 77 W 9 15 29.74 1007 10 16 N/A
1:12 am 01:12 Cloudy 49 9.4 42 5.6 77 77 W 7 11 29.77 1008 10 16 N/A
1:53 am 01:53 Cloudy 48 8.9 41 5 77 77 W 9 15 29.75 1007 10 16 N/A
2:03 am 02:03 Cloudy 48 8.9 41 5 77 77 W 12 19 29.80 1009 10 16 N/A
2:53 am 02:53 Cloudy 46 7.8 39 3.9 77 77 WNW 15 24 29.78 1009 10 16 N/A
3:48 am 03:48 Cloudy 43 6 37 3 81 81 NW 17 28 29.85 1011 10 16 N/A
3:53 am 03:53 Cloudy 42 5.6 37 2.8 82 82 NW 15 24 29.83 1010 10 16 N/A
4:41 am 04:41 Cloudy 40 4.4 34 1.1 79 79 WNW 15 24 29.85 1011 10 16 N/A
4:53 am 04:53 Cloudy 40 4.4 34 1.1 79 79 WNW 15 24 29.85 1011 10 16 N/A
5:03 am 05:03 Cloudy 40 4.4 33 0.6 77 77 WNW 14 22 29.88 1012 10 16 N/A
5:16 am 05:16 Cloudy 40 4.4 32 undefined 73 73 WNW 14 22 29.88 1012 10 16 N/A
5:53 am 05:53 Cloudy 39 3.9 32 undefined 76 76 WNW 8 13 29.88 1012 10 16 N/A
6:53 am 06:53 Cloudy 38 3.3 30 -1.1 73 73 W 14 22 29.93 1014 10 16 N/A
7:53 am 07:53 Cloudy 37 2.8 30 -1.1 76 76 WNW 12 19 29.96 1015 10 16 N/A
8:53 am 08:53 Cloudy 37 2.8 29 -1.7 73 73 NW 10 17 30.00 1016 10 16 N/A
9:53 am 09:53 Cloudy 37 2.8 28 -2.2 70 70 NW 13 20 30.04 1017 10 16 N/A
10:53 am 10:53 Cloudy 37 2.8 27 -2.8 67 67 NNW 8 13 30.08 1019 10 16 N/A
11:53 am 11:53 Cloudy 38 3.3 28 -2.2 68 68 NNW 8 13 30.08 1019 10 16 N/A
12:53 pm 12:53 Cloudy 40 4.4 29 -1.7 65 65 NNE 7 11 30.09 1019 10 16 N/A
1:53 pm 13:53 Cloudy 42 5.6 30 -1.1 62 62 NNE 6 9 30.10 1019 10 16 N/A
2:53 pm 14:53 Mostly Cloudy 43 6.1 31 -0.6 63 63 NNW 6 9 30.09 1019 10 16 N/A
3:53 pm 15:53 Mostly Sunny 45 7.2 31 -0.6 58 58 VRB 5 7 30.09 1019 10 16 N/A
4:53 pm 16:53 Sunny 46 7.8 31 -0.6 56 56 VRB 5 7 30.09 1019 10 16 N/A
5:53 pm 17:53 Mostly Sunny 47 8.3 31 -0.6 54 54 ENE 3 6 30.11 1020 10 16 N/A
6:53 pm 18:53 Sunny 46 7.8 31 -0.6 56 56 E 5 7 30.11 1020 10 16 N/A
7:53 pm 19:53 Sunny 43 6.1 31 -0.6 63 63 ENE 8 13 30.13 1020 10 16 N/A
8:53 pm 20:53 Clear 39 3.9 31 -0.6 73 73 NE 6 9 30.14 1021 10 16 N/A
9:53 pm 21:53 Clear 39 3.9 31 -0.6 73 73 ENE 5 7 30.18 1022 10 16 N/A
10:53 pm 22:53 Clear 37 2.8 31 -0.6 79 79 ENE 6 9 30.19 1022 10 16 N/A
11:53 pm 23:53 Clear 35 1.7 30 -1.1 82 82 ENE 5 7 30.20 1023 10 16 N/A

Powered by AerisWeather